Time,TemperatureF,DewpointF,PressureIn,WindDirection,WindDirectionDegrees,WindSpeedMPH,WindSpeedGustMPH,Humidity,HourlyPrecipIn,Conditions,Clouds,dailyrainin,SoftwareType,DateUTC
2013-02-10 00:00:00,32.5,27.1,30.37,WNW,293,0.0,0.0,80,0.00,,,0.00,meteohub,2013-02-10 05:00:00,
2013-02-10 00:01:00,32.5,27.1,30.37,WNW,293,0.0,0.0,80,0.00,,,0.00,meteohub,2013-02-10 05:01:00,
2013-02-10 00:06:00,32.4,27.0,30.37,WNW,293,0.0,0.0,80,0.00,,,0.00,meteohub,2013-02-10 05:06:00,
2013-02-10 00:11:00,32.5,26.8,30.37,WNW,294,0.0,0.0,79,0.00,,,0.00,meteohub,2013-02-10 05:11:00,
2013-02-10 00:16:00,32.5,28.6,30.37,WNW,294,0.0,0.0,85,0.00,,,0.00,meteohub,2013-02-10 05:16:00,
2013-02-10 00:21:00,32.5,28.8,30.37,WNW,294,0.0,0.0,86,0.00,,,0.00,meteohub,2013-02-10 05:21:00,
2013-02-10 00:26:00,32.5,28.6,30.37,WNW,293,0.0,0.0,85,0.00,,,0.00,meteohub,2013-02-10 05:26:00,
2013-02-10 00:31:00,32.4,28.0,30.36,WNW,293,0.0,0.0,84,0.00,,,0.00,meteohub,2013-02-10 05:31:00,
2013-02-10 00:36:00,32.2,28.2,30.36,North,8,0.0,1.0,85,0.00,,,0.00,meteohub,2013-02-10 05:36:00,
2013-02-10 00:41:00,32.2,27.9,30.36,West,260,0.0,1.0,84,0.00,,,0.00,meteohub,2013-02-10 05:41:00,
2013-02-10 00:46:00,32.2,28.2,30.36,West,260,0.0,1.0,85,0.00,,,0.00,meteohub,2013-02-10 05:46:00,
2013-02-10 00:51:00,32.4,28.0,30.37,West,260,0.0,1.0,84,0.00,,,0.00,meteohub,2013-02-10 05:51:00,
2013-02-10 00:56:00,32.5,28.0,30.37,West,260,0.0,0.0,83,0.00,,,0.00,meteohub,2013-02-10 05:56:00,
2013-02-10 01:01:00,32.7,27.3,30.37,West,260,0.0,0.0,80,0.00,,,0.00,meteohub,2013-02-10 06:01:00,
2013-02-10 01:06:00,32.7,27.0,30.37,West,259,0.0,0.0,79,0.00,,,0.00,meteohub,2013-02-10 06:06:00,
2013-02-10 01:11:00,33.1,26.6,30.37,West,260,0.0,0.0,77,0.00,,,0.00,meteohub,2013-02-10 06:11:00,
2013-02-10 01:16:00,33.1,26.6,30.37,West,260,0.0,0.0,77,0.00,,,0.00,meteohub,2013-02-10 06:16:00,
2013-02-10 01:21:00,33.1,27.3,30.37,West,260,0.0,0.0,79,0.00,,,0.00,meteohub,2013-02-10 06:21:00,
2013-02-10 01:26:00,32.7,27.0,30.37,West,260,0.0,0.0,79,0.00,,,0.00,meteohub,2013-02-10 06:26:00,
2013-02-10 01:31:00,32.7,27.5,30.37,West,260,0.0,0.0,81,0.00,,,0.00,meteohub,2013-02-10 06:31:00,
2013-02-10 01:36:00,32.7,28.8,30.37,West,260,0.0,0.0,85,0.00,,,0.00,meteohub,2013-02-10 06:36:00,
2013-02-10 01:41:00,32.5,28.0,30.37,West,260,0.0,0.0,83,0.00,,,0.00,meteohub,2013-02-10 06:41:00,
2013-02-10 01:46:00,32.7,28.2,30.36,West,260,0.0,0.0,83,0.00,,,0.00,meteohub,2013-02-10 06:46:00,
2013-02-10 01:51:00,32.7,27.9,30.37,West,260,0.0,0.0,82,0.00,,,0.00,meteohub,2013-02-10 06:51:00,
2013-02-10 01:56:00,32.7,27.9,30.37,West,260,0.0,0.0,82,0.00,,,0.00,meteohub,2013-02-10 06:56:00,
2013-02-10 02:01:00,32.7,27.9,30.37,West,259,0.0,0.0,82,0.00,,,0.00,meteohub,2013-02-10 07:01:00,
2013-02-10 02:06:00,32.7,28.2,30.38,South,188,0.0,0.0,83,0.00,,,0.00,meteohub,2013-02-10 07:06:00,
2013-02-10 02:11:00,32.7,28.8,30.37,South,188,0.0,0.0,85,0.00,,,0.00,meteohub,2013-02-10 07:11:00,
2013-02-10 02:16:00,32.5,29.1,30.38,South,188,0.0,0.0,87,0.00,,,0.00,meteohub,2013-02-10 07:16:00,
2013-02-10 02:21:00,32.7,28.4,30.37,SE,143,0.0,0.0,84,0.00,,,0.00,meteohub,2013-02-10 07:21:00,
2013-02-10 02:26:00,32.9,28.2,30.38,SE,143,0.0,0.0,83,0.00,,,0.00,meteohub,2013-02-10 07:26:00,
2013-02-10 02:31:00,33.1,28.8,30.37,SE,143,0.0,0.0,84,0.00,,,0.00,meteohub,2013-02-10 07:31:00,
2013-02-10 02:36:00,33.1,28.4,30.38,SE,143,0.0,0.0,83,0.00,,,0.00,meteohub,2013-02-10 07:36:00,
2013-02-10 02:41:00,32.7,28.8,30.37,SE,143,0.0,0.0,85,0.00,,,0.00,meteohub,2013-02-10 07:41:00,
2013-02-10 02:46:00,32.9,28.9,30.37,SE,143,0.0,0.0,85,0.00,,,0.00,meteohub,2013-02-10 07:46:00,
2013-02-10 02:51:00,33.1,27.9,30.37,ESE,112,0.0,0.0,81,0.00,,,0.00,meteohub,2013-02-10 07:51:00,
2013-02-10 02:56:00,33.3,28.9,30.37,WSW,256,0.0,1.0,84,0.00,,,0.00,meteohub,2013-02-10 07:56:00,
2013-02-10 03:01:00,32.2,27.0,30.37,WSW,255,0.0,1.0,81,0.00,,,0.00,meteohub,2013-02-10 08:01:00,
2013-02-10 03:06:00,32.2,27.0,30.37,WSW,255,0.0,1.0,81,0.00,,,0.00,meteohub,2013-02-10 08:06:00,
2013-02-10 03:11:00,32.2,27.0,30.37,North,-999,-999.0,1.0,81,0.00,,,0.00,meteohub,2013-02-10 08:11:00,
2013-02-10 08:00:00,33.3,24.8,30.39,North,-999,-999.0,-999.0,71,-99.99,,,0.00,meteohub,2013-02-10 13:00:00,
2013-02-10 08:05:00,33.4,25.0,30.39,North,-999,-999.0,-999.0,71,-99.99,,,0.00,meteohub,2013-02-10 13:05:00,
2013-02-10 08:10:00,33.8,26.4,30.40,NNW,328,0.0,-999.0,74,0.00,,,0.00,meteohub,2013-02-10 13:10:00,
2013-02-10 08:15:00,34.3,24.4,30.39,NNW,328,0.0,0.0,67,0.00,,,0.00,meteohub,2013-02-10 13:15:00,
2013-02-10 08:20:00,34.9,25.3,30.40,NNW,327,0.0,0.0,68,0.00,,,0.00,meteohub,2013-02-10 13:20:00,
2013-02-10 08:25:00,35.2,25.3,30.40,NNW,328,0.0,0.0,67,0.00,,,0.00,meteohub,2013-02-10 13:25:00,
2013-02-10 08:30:00,35.8,25.2,30.40,NNW,327,0.0,0.0,65,0.00,,,0.00,meteohub,2013-02-10 13:30:00,
2013-02-10 08:35:00,36.1,26.6,30.40,NNW,328,0.0,0.0,68,0.00,,,0.00,meteohub,2013-02-10 13:35:00,
2013-02-10 08:40:00,36.7,24.4,30.40,NNW,327,0.0,0.0,61,0.00,,,0.00,meteohub,2013-02-10 13:40:00,
2013-02-10 08:45:00,36.9,28.8,30.39,NNW,327,0.0,0.0,72,0.00,,,0.00,meteohub,2013-02-10 13:45:00,
2013-02-10 08:50:00,37.0,29.8,30.40,NNW,328,0.0,0.0,75,0.00,,,0.00,meteohub,2013-02-10 13:50:00,
2013-02-10 08:55:00,37.0,28.6,30.40,NNW,327,0.0,0.0,71,0.00,,,0.00,meteohub,2013-02-10 13:55:00,
2013-02-10 09:00:00,37.6,31.1,30.40,West,280,0.0,0.0,77,0.00,,,0.00,meteohub,2013-02-10 14:00:00,
2013-02-10 09:05:00,37.6,30.7,30.40,West,260,0.0,0.0,76,0.00,,,0.00,meteohub,2013-02-10 14:05:00,
2013-02-10 09:10:00,37.9,29.7,30.40,West,271,0.0,1.0,72,0.00,,,0.00,meteohub,2013-02-10 14:10:00,
2013-02-10 09:15:00,38.5,29.8,30.40,West,271,0.0,1.0,71,0.00,,,0.00,meteohub,2013-02-10 14:15:00,
2013-02-10 09:20:00,38.8,29.5,30.40,West,271,0.0,1.0,69,0.00,,,0.00,meteohub,2013-02-10 14:20:00,
2013-02-10 09:25:00,38.7,30.7,30.40,SE,142,0.0,1.0,73,0.00,,,0.00,meteohub,2013-02-10 14:25:00,
2013-02-10 09:30:00,38.7,30.4,30.40,SE,143,0.0,1.0,72,0.00,,,0.00,meteohub,2013-02-10 14:30:00,
2013-02-10 09:35:00,38.7,30.7,30.40,SE,125,0.0,1.0,73,0.00,,,0.00,meteohub,2013-02-10 14:35:00,
2013-02-10 09:40:00,38.5,28.4,30.41,SE,125,0.0,1.0,67,0.00,,,0.00,meteohub,2013-02-10 14:40:00,
2013-02-10 09:45:00,38.7,29.3,30.41,SE,126,0.0,1.0,69,0.00,,,0.00,meteohub,2013-02-10 14:45:00,
2013-02-10 09:50:00,38.7,26.4,30.41,SE,126,0.0,0.0,61,0.00,,,0.00,meteohub,2013-02-10 14:50:00,
2013-02-10 09:55:00,39.0,27.5,30.42,SE,126,0.0,0.0,63,0.00,,,0.00,meteohub,2013-02-10 14:55:00,
2013-02-10 10:00:00,39.4,25.3,30.42,SE,125,0.0,0.0,57,0.00,,,0.00,meteohub,2013-02-10 15:00:00,
2013-02-10 10:05:00,39.7,27.3,30.42,SE,126,0.0,1.0,61,0.00,,,0.00,meteohub,2013-02-10 15:05:00,
2013-02-10 10:10:00,40.6,26.2,30.42,West,260,1.0,1.0,56,0.00,,,0.00,meteohub,2013-02-10 15:10:00,
2013-02-10 10:15:00,41.0,26.1,30.42,SE,135,0.0,1.0,55,0.00,,,0.00,meteohub,2013-02-10 15:15:00,
2013-02-10 10:20:00,41.2,25.3,30.42,SSW,193,1.0,3.0,53,0.00,,,0.00,meteohub,2013-02-10 15:20:00,
2013-02-10 10:25:00,41.9,25.2,30.42,East,84,0.0,3.0,51,0.00,,,0.00,meteohub,2013-02-10 15:25:00,
2013-02-10 10:30:00,42.4,24.6,30.41,SE,139,2.0,5.0,49,0.00,,,0.00,meteohub,2013-02-10 15:30:00,
2013-02-10 10:35:00,42.6,23.7,30.42,ESE,107,1.0,6.0,47,0.00,,,0.00,meteohub,2013-02-10 15:35:00,
2013-02-10 10:40:00,43.3,23.9,30.42,West,275,3.0,6.0,46,0.00,,,0.00,meteohub,2013-02-10 15:40:00,
2013-02-10 10:45:00,43.7,24.3,30.42,ESE,119,0.0,6.0,46,0.00,,,0.00,meteohub,2013-02-10 15:45:00,
2013-02-10 10:50:00,43.5,23.5,30.42,South,170,2.0,9.0,45,0.00,,,0.00,meteohub,2013-02-10 15:50:00,
2013-02-10 10:55:00,43.3,23.4,30.42,SW,235,1.0,9.0,45,0.00,,,0.00,meteohub,2013-02-10 15:55:00,
2013-02-10 11:00:00,43.7,23.2,30.41,SSW,205,2.0,9.0,44,0.00,,,0.00,meteohub,2013-02-10 16:00:00,
2013-02-10 11:05:00,43.9,23.9,30.41,ESE,108,8.0,8.0,45,0.00,,,0.00,meteohub,2013-02-10 16:05:00,
2013-02-10 11:10:00,43.5,23.5,30.41,SE,136,3.0,9.0,45,0.00,,,0.00,meteohub,2013-02-10 16:10:00,
2013-02-10 11:15:00,43.5,23.5,30.41,SE,133,4.0,9.0,45,0.00,,,0.00,meteohub,2013-02-10 16:15:00,
2013-02-10 11:20:00,43.5,23.0,30.41,SSE,165,3.0,9.0,44,0.00,,,0.00,meteohub,2013-02-10 16:20:00,
2013-02-10 11:25:00,43.7,23.2,30.41,SSE,158,7.0,9.0,44,0.00,,,0.00,meteohub,2013-02-10 16:25:00,
2013-02-10 11:30:00,44.4,23.9,30.41,East,86,3.0,8.0,44,0.00,,,0.00,meteohub,2013-02-10 16:30:00,
2013-02-10 11:35:00,46.4,24.6,30.40,East,95,1.0,8.0,42,0.00,,,0.00,meteohub,2013-02-10 16:35:00,
2013-02-10 11:40:00,46.6,24.1,30.40,SSE,167,6.0,7.0,41,0.00,,,0.00,meteohub,2013-02-10 16:40:00,
2013-02-10 11:45:00,46.2,23.9,30.39,SSW,196,1.0,12.0,41,0.00,,,0.00,meteohub,2013-02-10 16:45:00,
2013-02-10 11:50:00,46.6,23.5,30.38,SE,129,6.0,12.0,40,0.00,,,0.00,meteohub,2013-02-10 16:50:00,
2013-02-10 11:55:00,45.9,22.8,30.38,ESE,110,5.0,10.0,40,0.00,,,0.00,meteohub,2013-02-10 16:55:00,
2013-02-10 12:00:00,45.5,23.2,30.38,SSE,148,9.0,10.0,41,0.00,,,0.00,meteohub,2013-02-10 17:00:00,
2013-02-10 12:05:00,45.7,23.4,30.38,SSW,194,3.0,13.0,41,0.00,,,0.00,meteohub,2013-02-10 17:05:00,
2013-02-10 12:11:00,45.5,22.6,30.38,SSE,166,9.0,14.0,40,0.00,,,0.00,meteohub,2013-02-10 17:11:00,
2013-02-10 12:16:00,45.5,23.2,30.38,SSE,159,2.0,14.0,41,0.00,,,0.00,meteohub,2013-02-10 17:16:00,
2013-02-10 12:21:00,45.3,23.0,30.38,SSE,148,11.0,12.0,41,0.00,,,0.00,meteohub,2013-02-10 17:21:00,
2013-02-10 12:26:00,44.8,23.0,30.38,South,179,4.0,12.0,42,0.00,,,0.00,meteohub,2013-02-10 17:26:00,
2013-02-10 12:31:00,45.1,23.9,30.38,SE,131,3.0,12.0,43,0.00,,,0.00,meteohub,2013-02-10 17:31:00,
2013-02-10 12:36:00,45.0,23.7,30.37,SSE,153,6.0,12.0,43,0.00,,,0.00,meteohub,2013-02-10 17:36:00,
2013-02-10 12:41:00,45.1,23.4,30.36,SW,235,2.0,12.0,42,0.00,,,0.00,meteohub,2013-02-10 17:41:00,
2013-02-10 12:46:00,45.9,24.6,30.35,SE,131,2.0,12.0,43,0.00,,,0.00,meteohub,2013-02-10 17:46:00,
2013-02-10 12:51:00,46.2,23.9,30.34,East,93,1.0,8.0,41,0.00,,,0.00,meteohub,2013-02-10 17:51:00,
2013-02-10 12:56:00,46.8,23.2,30.34,ESE,103,6.0,8.0,39,0.00,,,0.00,meteohub,2013-02-10 17:56:00,
2013-02-10 13:01:00,47.7,24.4,30.33,NW,315,0.0,11.0,40,0.00,,,0.00,meteohub,2013-02-10 18:01:00,
2013-02-10 13:06:00,48.9,24.4,30.32,SE,128,2.0,11.0,38,0.00,,,0.00,meteohub,2013-02-10 18:06:00,
2013-02-10 13:11:00,48.4,23.4,30.32,ESE,121,9.0,10.0,37,0.00,,,0.00,meteohub,2013-02-10 18:11:00,
2013-02-10 13:16:00,48.4,23.4,30.32,ESE,117,6.0,15.0,37,0.00,,,0.00,meteohub,2013-02-10 18:16:00,
2013-02-10 13:21:00,47.8,23.5,30.31,WNW,302,3.0,15.0,38,0.00,,,0.00,meteohub,2013-02-10 18:21:00,
2013-02-10 13:26:00,48.0,22.3,30.30,SSE,151,12.0,15.0,36,0.00,,,0.00,meteohub,2013-02-10 18:26:00,
2013-02-10 13:31:00,47.3,22.3,30.30,West,275,6.0,14.0,37,0.00,,,0.00,meteohub,2013-02-10 18:31:00,
2013-02-10 13:36:00,47.1,22.8,30.29,South,184,4.0,14.0,38,0.00,,,0.00,meteohub,2013-02-10 18:36:00,
2013-02-10 13:41:00,46.9,24.4,30.30,ESE,104,4.0,14.0,41,0.00,,,0.00,meteohub,2013-02-10 18:41:00,
2013-02-10 13:46:00,47.8,26.4,30.28,SSE,152,7.0,13.0,43,0.00,,,0.00,meteohub,2013-02-10 18:46:00,
2013-02-10 13:51:00,49.5,28.4,30.28,East,97,3.0,13.0,44,0.00,,,0.00,meteohub,2013-02-10 18:51:00,
2013-02-10 13:56:00,50.2,29.1,30.29,NNW,343,1.0,12.0,44,0.00,,,0.00,meteohub,2013-02-10 18:56:00,
2013-02-10 14:01:00,49.8,28.8,30.30,South,186,6.0,9.0,44,0.00,,,0.00,meteohub,2013-02-10 19:01:00,
2013-02-10 14:06:00,48.4,29.1,30.30,SE,134,5.0,9.0,47,0.00,,,0.00,meteohub,2013-02-10 19:06:00,
2013-02-10 14:11:00,48.4,30.0,30.29,WNW,295,1.0,10.0,49,0.00,,,0.00,meteohub,2013-02-10 19:11:00,
2013-02-10 14:16:00,48.7,31.5,30.29,SE,124,1.0,10.0,51,0.00,,,0.00,meteohub,2013-02-10 19:16:00,
2013-02-10 14:21:00,48.0,31.3,30.29,South,186,5.0,12.0,52,0.00,,,0.00,meteohub,2013-02-10 19:21:00,
2013-02-10 14:26:00,47.8,31.1,30.30,ESE,109,6.0,12.0,52,0.00,,,0.00,meteohub,2013-02-10 19:26:00,
2013-02-10 14:31:00,46.9,30.2,30.29,ENE,70,1.0,11.0,52,0.00,,,0.00,meteohub,2013-02-10 19:31:00,
2013-02-10 14:36:00,46.6,29.8,30.29,SSW,194,3.0,11.0,52,0.00,,,0.00,meteohub,2013-02-10 19:36:00,
2013-02-10 14:41:00,46.4,30.2,30.29,SSE,151,0.0,10.0,53,0.00,,,0.00,meteohub,2013-02-10 19:41:00,
2013-02-10 14:46:00,46.4,29.7,30.28,East,91,1.0,9.0,52,0.00,,,0.00,meteohub,2013-02-10 19:46:00,
2013-02-10 14:51:00,46.0,29.8,30.28,SE,129,3.0,9.0,53,0.00,,,0.00,meteohub,2013-02-10 19:51:00,
2013-02-10 14:56:00,46.0,29.8,30.28,East,95,2.0,8.0,53,0.00,,,0.00,meteohub,2013-02-10 19:56:00,
2013-02-10 15:01:00,46.0,29.8,30.27,ESE,121,1.0,8.0,53,0.00,,,0.00,meteohub,2013-02-10 20:01:00,
2013-02-10 15:06:00,46.2,30.0,30.26,East,86,2.0,10.0,53,0.00,,,0.00,meteohub,2013-02-10 20:06:00,
2013-02-10 15:11:00,46.2,30.0,30.25,SE,140,1.0,10.0,53,0.00,,,0.00,meteohub,2013-02-10 20:11:00,
2013-02-10 15:16:00,46.6,29.8,30.27,ESE,105,0.0,8.0,52,0.00,,,0.00,meteohub,2013-02-10 20:16:00,
2013-02-10 15:21:00,46.8,29.7,30.28,ESE,120,7.0,9.0,51,0.00,,,0.00,meteohub,2013-02-10 20:21:00,
2013-02-10 15:26:00,46.6,29.8,30.27,WSW,246,2.0,9.0,52,0.00,,,0.00,meteohub,2013-02-10 20:26:00,
2013-02-10 15:31:00,46.6,29.8,30.27,East,94,1.0,9.0,52,0.00,,,0.00,meteohub,2013-02-10 20:31:00,
2013-02-10 15:36:00,46.8,30.0,30.27,SE,129,2.0,9.0,52,0.00,,,0.00,meteohub,2013-02-10 20:36:00,
2013-02-10 15:41:00,46.8,29.7,30.28,SSE,153,3.0,5.0,51,0.00,,,0.00,meteohub,2013-02-10 20:41:00,
2013-02-10 15:46:00,46.6,29.8,30.28,ESE,117,0.0,8.0,52,0.00,,,0.00,meteohub,2013-02-10 20:46:00,
2013-02-10 15:51:00,46.6,29.5,30.28,SE,125,2.0,8.0,51,0.00,,,0.00,meteohub,2013-02-10 20:51:00,
2013-02-10 15:56:00,46.4,29.3,30.28,SE,139,1.0,8.0,51,0.00,,,0.00,meteohub,2013-02-10 20:56:00,
2013-02-10 16:01:00,46.2,30.0,30.28,ESE,115,1.0,5.0,53,0.00,,,0.00,meteohub,2013-02-10 21:01:00,
2013-02-10 16:06:00,46.0,29.8,30.27,East,91,1.0,5.0,53,0.00,,,0.00,meteohub,2013-02-10 21:06:00,
2013-02-10 16:11:00,46.0,29.5,30.26,SE,129,4.0,5.0,52,0.00,,,0.00,meteohub,2013-02-10 21:11:00,
2013-02-10 16:17:00,46.0,29.8,30.26,SSE,163,3.0,7.0,53,0.00,,,0.00,meteohub,2013-02-10 21:17:00,
2013-02-10 16:22:00,46.0,29.8,30.26,SE,131,1.0,7.0,53,0.00,,,0.00,meteohub,2013-02-10 21:22:00,
2013-02-10 16:27:00,46.0,30.4,30.26,SE,141,0.0,7.0,54,0.00,,,0.00,meteohub,2013-02-10 21:27:00,
2013-02-10 16:32:00,46.0,30.4,30.25,ESE,108,2.0,6.0,54,0.00,,,0.00,meteohub,2013-02-10 21:32:00,
2013-02-10 16:37:00,46.0,30.7,30.25,SE,127,0.0,5.0,55,0.00,,,0.00,meteohub,2013-02-10 21:37:00,
2013-02-10 16:42:00,45.9,30.6,30.25,ESE,115,0.0,4.0,55,0.00,,,0.00,meteohub,2013-02-10 21:42:00,
2013-02-10 16:47:00,45.9,31.5,30.25,West,263,0.0,4.0,57,0.00,,,0.00,meteohub,2013-02-10 21:47:00,
2013-02-10 16:52:00,45.9,31.5,30.25,East,87,0.0,3.0,57,0.00,,,0.00,meteohub,2013-02-10 21:52:00,
2013-02-10 16:57:00,45.9,32.0,30.25,SSE,158,1.0,2.0,58,0.00,,,0.00,meteohub,2013-02-10 21:57:00,
2013-02-10 17:02:00,45.9,32.7,30.26,WNW,288,0.0,4.0,60,0.00,,,0.00,meteohub,2013-02-10 22:02:00,
2013-02-10 17:07:00,45.7,32.5,30.27,SSW,193,0.0,4.0,60,0.00,,,0.00,meteohub,2013-02-10 22:07:00,
2013-02-10 17:12:00,45.7,32.5,30.26,East,95,0.0,4.0,60,0.00,,,0.00,meteohub,2013-02-10 22:12:00,
2013-02-10 17:17:00,45.5,33.3,30.26,South,190,2.0,2.0,62,0.00,,,0.00,meteohub,2013-02-10 22:17:00,
2013-02-10 17:22:00,45.1,34.5,30.27,SE,127,0.0,3.0,66,0.00,,,0.00,meteohub,2013-02-10 22:22:00,
2013-02-10 17:27:00,45.0,34.7,30.26,SE,136,0.0,3.0,67,0.00,,,0.00,meteohub,2013-02-10 22:27:00,
2013-02-10 17:32:00,44.2,36.5,30.26,SE,134,0.0,3.0,74,0.00,,,0.00,meteohub,2013-02-10 22:32:00,
2013-02-10 17:37:00,43.5,37.4,30.26,NE,48,0.0,1.0,79,0.00,,,0.00,meteohub,2013-02-10 22:37:00,
2013-02-10 17:42:00,43.2,37.0,30.26,NE,48,0.0,1.0,79,0.01,,,0.01,meteohub,2013-02-10 22:42:00,
2013-02-10 17:47:00,42.3,38.3,30.26,North,350,1.0,1.0,86,0.02,,,0.02,meteohub,2013-02-10 22:47:00,
2013-02-10 17:52:00,41.7,38.1,30.25,NNW,348,0.0,1.0,87,0.02,,,0.02,meteohub,2013-02-10 22:52:00,
2013-02-10 17:57:00,41.4,38.3,30.25,NNW,348,0.0,1.0,89,0.03,,,0.03,meteohub,2013-02-10 22:57:00,
2013-02-10 18:02:00,41.2,38.8,30.25,NNE,17,0.0,1.0,91,0.04,,,0.04,meteohub,2013-02-10 23:02:00,
2013-02-10 18:07:00,40.8,38.7,30.26,NNE,17,0.0,1.0,92,0.05,,,0.05,meteohub,2013-02-10 23:07:00,
2013-02-10 18:12:00,40.6,38.5,30.26,NNE,15,2.0,2.0,92,0.07,,,0.07,meteohub,2013-02-10 23:12:00,
2013-02-10 18:17:00,40.3,37.9,30.26,NNW,338,1.0,3.0,91,0.08,,,0.08,meteohub,2013-02-10 23:17:00,
2013-02-10 18:22:00,40.1,37.9,30.27,North,8,1.0,3.0,92,0.09,,,0.09,meteohub,2013-02-10 23:22:00,
2013-02-10 18:27:00,39.9,38.1,30.27,NW,321,0.0,3.0,93,0.11,,,0.10,meteohub,2013-02-10 23:27:00,
2013-02-10 18:32:00,39.9,38.1,30.27,NNW,344,1.0,3.0,93,0.13,,,0.13,meteohub,2013-02-10 23:32:00,
2013-02-10 18:37:00,39.9,38.1,30.28,NNW,334,1.0,5.0,93,0.14,,,0.15,meteohub,2013-02-10 23:37:00,
2013-02-10 18:42:00,39.7,38.1,30.28,North,352,0.0,5.0,94,0.15,,,0.16,meteohub,2013-02-10 23:42:00,
2013-02-10 18:47:00,39.7,38.1,30.28,NW,323,2.0,3.0,94,0.17,,,0.19,meteohub,2013-02-10 23:47:00,
2013-02-10 18:52:00,39.7,38.5,30.27,NNW,345,0.0,4.0,95,0.18,,,0.21,meteohub,2013-02-10 23:52:00,
2013-02-10 18:57:00,39.7,38.5,30.28,East,94,0.0,4.0,95,0.19,,,0.23,meteohub,2013-02-10 23:57:00,
2013-02-10 19:02:00,39.7,38.5,30.27,South,173,0.0,4.0,95,0.20,,,0.25,meteohub,2013-02-11 00:02:00,
2013-02-10 19:07:00,39.6,38.3,30.27,ESE,106,0.0,1.0,95,0.22,,,0.02,meteohub,2013-02-11 00:07:00,
2013-02-10 19:12:00,39.6,38.5,30.27,ESE,105,0.0,1.0,96,0.23,,,0.04,meteohub,2013-02-11 00:12:00,
2013-02-10 19:17:00,39.6,38.5,30.27,NNE,30,0.0,1.0,96,0.22,,,0.05,meteohub,2013-02-11 00:17:00,
2013-02-10 19:22:00,39.6,38.5,30.28,North,8,0.0,0.0,96,0.22,,,0.06,meteohub,2013-02-11 00:22:00,
2013-02-10 19:27:00,39.6,38.5,30.29,North,8,0.0,0.0,96,0.22,,,0.07,meteohub,2013-02-11 00:27:00,
2013-02-10 19:32:00,39.6,38.5,30.29,North,8,0.0,1.0,96,0.21,,,0.08,meteohub,2013-02-11 00:32:00,
2013-02-10 19:37:00,39.6,38.5,30.29,NNW,342,1.0,1.0,96,0.20,,,0.09,meteohub,2013-02-11 00:37:00,
2013-02-10 19:42:00,39.6,38.5,30.29,NNW,333,0.0,1.0,96,0.19,,,0.11,meteohub,2013-02-11 00:42:00,
2013-02-10 19:47:00,39.6,38.5,30.29,NNW,331,0.0,1.0,96,0.20,,,0.12,meteohub,2013-02-11 00:47:00,
2013-02-10 19:52:00,39.6,38.5,30.30,WNW,293,0.0,1.0,96,0.18,,,0.14,meteohub,2013-02-11 00:52:00,
2013-02-10 19:57:00,39.6,38.5,30.29,ESE,114,0.0,1.0,96,0.17,,,0.15,meteohub,2013-02-11 00:57:00,
2013-02-10 20:02:00,39.6,38.8,30.30,West,274,0.0,1.0,97,0.16,,,0.16,meteohub,2013-02-11 01:02:00,
2013-02-10 20:07:00,39.6,38.8,30.31,WNW,289,0.0,1.0,97,0.14,,,0.17,meteohub,2013-02-11 01:07:00,
2013-02-10 20:12:00,39.7,39.0,30.32,WNW,283,1.0,1.0,97,0.15,,,0.19,meteohub,2013-02-11 01:12:00,
2013-02-10 20:17:00,39.7,39.0,30.32,WNW,284,0.0,1.0,97,0.14,,,0.20,meteohub,2013-02-11 01:17:00,
2013-02-10 20:22:00,39.7,39.0,30.32,SW,232,0.0,1.0,97,0.16,,,0.22,meteohub,2013-02-11 01:22:00,
2013-02-10 20:27:00,39.7,39.0,30.32,South,186,0.0,1.0,97,0.16,,,0.23,meteohub,2013-02-11 01:27:00,
2013-02-10 20:32:00,39.7,39.0,30.32,SSW,210,0.0,1.0,97,0.16,,,0.25,meteohub,2013-02-11 01:32:00,
2013-02-10 20:37:00,39.9,39.2,30.32,SSW,212,0.0,1.0,97,0.16,,,0.26,meteohub,2013-02-11 01:37:00,
2013-02-10 20:42:00,39.9,39.2,30.33,SSW,212,0.0,0.0,97,0.16,,,0.27,meteohub,2013-02-11 01:42:00,
2013-02-10 20:47:00,39.7,39.0,30.32,ESE,107,0.0,0.0,97,0.15,,,0.28,meteohub,2013-02-11 01:47:00,
2013-02-10 20:52:00,39.7,39.0,30.32,East,91,1.0,1.0,97,0.16,,,0.30,meteohub,2013-02-11 01:52:00,
2013-02-10 20:57:00,39.7,39.0,30.32,West,271,2.0,2.0,97,0.15,,,0.30,meteohub,2013-02-11 01:57:00,
2013-02-10 21:02:00,39.7,39.0,30.32,West,281,0.0,2.0,97,0.14,,,0.31,meteohub,2013-02-11 02:02:00,
2013-02-10 21:07:00,39.9,39.2,30.32,West,281,0.0,2.0,97,0.13,,,0.31,meteohub,2013-02-11 02:07:00,
2013-02-10 21:12:00,39.7,39.0,30.31,East,91,0.0,2.0,97,0.13,,,0.32,meteohub,2013-02-11 02:12:00,
2013-02-10 21:17:00,39.7,39.0,30.31,ESE,103,0.0,0.0,97,0.12,,,0.33,meteohub,2013-02-11 02:17:00,
2013-02-10 21:22:00,39.7,39.0,30.30,ESE,103,0.0,1.0,97,0.12,,,0.34,meteohub,2013-02-11 02:22:00,
2013-02-10 21:27:00,39.7,39.2,30.30,East,101,0.0,1.0,98,0.11,,,0.35,meteohub,2013-02-11 02:27:00,
2013-02-10 21:32:00,39.9,39.4,30.29,West,277,0.0,1.0,98,0.10,,,0.35,meteohub,2013-02-11 02:32:00,
2013-02-10 21:37:00,39.9,39.4,30.29,SSE,163,0.0,1.0,98,0.09,,,0.35,meteohub,2013-02-11 02:37:00,
2013-02-10 21:42:00,39.9,39.4,30.29,SE,133,0.0,1.0,98,0.08,,,0.36,meteohub,2013-02-11 02:42:00,
2013-02-10 21:47:00,39.9,39.4,30.29,West,264,1.0,0.0,98,0.07,,,0.36,meteohub,2013-02-11 02:47:00,
2013-02-10 21:52:00,39.9,39.4,30.29,WSW,253,0.0,1.0,98,0.06,,,0.36,meteohub,2013-02-11 02:52:00,
2013-02-10 21:57:00,40.1,39.6,30.29,SSW,204,0.0,1.0,98,0.05,,,0.36,meteohub,2013-02-11 02:57:00,
2013-02-10 22:02:00,40.1,39.6,30.28,WNW,291,0.0,1.0,98,0.06,,,0.37,meteohub,2013-02-11 03:02:00,
2013-02-10 22:07:00,40.3,39.7,30.29,WSW,253,0.0,1.0,98,0.05,,,0.37,meteohub,2013-02-11 03:07:00,
2013-02-10 22:12:00,40.3,39.7,30.29,SE,127,1.0,1.0,98,0.05,,,0.38,meteohub,2013-02-11 03:12:00,
2013-02-10 22:17:00,40.1,39.6,30.28,SSE,152,0.0,1.0,98,0.05,,,0.39,meteohub,2013-02-11 03:17:00,
2013-02-10 22:22:00,40.1,39.6,30.29,SSE,150,0.0,2.0,98,0.07,,,0.41,meteohub,2013-02-11 03:22:00,
2013-02-10 22:27:00,39.9,39.4,30.28,SSE,151,0.0,2.0,98,0.07,,,0.41,meteohub,2013-02-11 03:27:00,
2013-02-10 22:32:00,39.9,39.4,30.27,ESE,117,1.0,1.0,98,0.07,,,0.42,meteohub,2013-02-11 03:32:00,
2013-02-10 22:37:00,39.7,39.2,30.26,ESE,121,0.0,1.0,98,0.08,,,0.43,meteohub,2013-02-11 03:37:00,
2013-02-10 22:42:00,39.9,39.4,30.25,ESE,121,0.0,1.0,98,0.08,,,0.44,meteohub,2013-02-11 03:42:00,
2013-02-10 22:47:00,39.9,39.4,30.25,ESE,122,0.0,1.0,98,0.09,,,0.45,meteohub,2013-02-11 03:47:00,
2013-02-10 22:52:00,39.9,39.4,30.24,ESE,122,0.0,1.0,98,0.10,,,0.46,meteohub,2013-02-11 03:52:00,
2013-02-10 22:57:00,39.9,39.4,30.24,WNW,297,0.0,0.0,98,0.11,,,0.47,meteohub,2013-02-11 03:57:00,
2013-02-10 23:02:00,40.1,39.6,30.24,West,278,0.0,1.0,98,0.11,,,0.48,meteohub,2013-02-11 04:02:00,
2013-02-10 23:07:00,40.1,39.6,30.22,West,278,0.0,1.0,98,0.11,,,0.49,meteohub,2013-02-11 04:07:00,
2013-02-10 23:12:00,39.9,39.4,30.22,SE,131,0.0,1.0,98,0.11,,,0.49,meteohub,2013-02-11 04:12:00,
2013-02-10 23:17:00,39.9,39.4,30.21,SSE,148,0.0,1.0,98,0.10,,,0.50,meteohub,2013-02-11 04:17:00,
2013-02-10 23:22:00,40.3,39.7,30.21,ESE,112,0.0,1.0,98,0.09,,,0.50,meteohub,2013-02-11 04:22:00,
2013-02-10 23:27:00,40.3,39.7,30.21,SW,228,1.0,1.0,98,0.08,,,0.50,meteohub,2013-02-11 04:27:00,
2013-02-10 23:32:00,40.8,40.3,30.21,SSW,212,1.0,3.0,98,0.08,,,0.51,meteohub,2013-02-11 04:32:00,
2013-02-10 23:37:00,41.4,41.2,30.21,SSW,212,1.0,5.0,99,0.08,,,0.51,meteohub,2013-02-11 04:37:00,
2013-02-10 23:42:00,41.9,41.7,30.21,WSW,257,0.0,5.0,99,0.06,,,0.51,meteohub,2013-02-11 04:42:00,
2013-02-10 23:47:00,42.6,42.4,30.21,SE,134,1.0,5.0,99,0.05,,,0.51,meteohub,2013-02-11 04:47:00,
2013-02-10 23:52:00,43.3,43.2,30.21,SSW,200,4.0,7.0,99,0.04,,,0.51,meteohub,2013-02-11 04:52:00,
2013-02-10 23:57:00,43.7,43.5,30.21,SW,225,1.0,9.0,99,0.03,,,0.51,meteohub,2013-02-11 04:57:00,